FW9514 Weather Reports


time (UTC)temp
C
wind
direction
speed
KPH
gust
KPH
rain 1hr
cm
rain 24hr
cm
rain mn
cm
humidity
%
barometer
mb
20220627211018 26 0.0 0.0 0.00 0.00 0.00 54 1016.0
20220627210518 26 0.0 0.0 0.00 0.00 0.00 54 1016.0
20220627210018 26 0.0 0.0 0.00 0.00 0.00 53 1016.0
20220627205518 26 0.0 0.0 0.00 0.00 0.00 55 1016.0
20220627205018 26 0.0 0.0 0.00 0.00 0.00 54 1016.0
20220627204518 26 0.0 0.0 0.00 0.00 0.00 54 1016.0
20220627204018 26 0.0 0.0 0.00 0.00 0.00 55 1016.1
20220627203518 26 0.0 0.0 0.00 0.00 0.00 55 1016.1
20220627203018 26 0.0 0.0 0.00 0.00 0.00 55 1016.1
20220627202518 26 0.0 0.0 0.00 0.00 0.00 54 1016.0
20220627202018 26 0.0 0.0 0.00 0.00 0.00 54 1016.1
20220627201518 26 0.0 0.0 0.00 0.00 0.00 55 1016.0
20220627201019 27 0.0 0.0 0.00 0.00 0.00 56 1016.0
20220627200518 27 0.0 0.0 0.00 0.00 0.00 59 1016.0
20220627200018 27 0.0 0.0 0.00 0.00 0.00 55 1016.0
20220627195518 27 0.0 3.2 0.00 0.00 0.00 55 1016.0
20220627195018 27 315 1.6 8.0 0.00 0.00 0.00 57 1015.9
20220627194519 27 315 3.2 8.0 0.00 0.00 0.00 55 1015.9
20220627194018 27 315 1.6 8.0 0.00 0.00 0.00 57 1015.9
20220627193518 27 0.0 0.0 0.00 0.00 0.00 57 1015.8
20220627193018 27 315 1.6 6.4 0.00 0.00 0.00 59 1015.8
20220627192518 26 315 3.2 6.4 0.00 0.00 0.00 59 1015.7
20220627192018 26 0.0 1.6 0.00 0.00 0.00 61 1015.7
20220627191518 26 0.0 4.8 0.00 0.00 0.00 62 1015.6
20220627191019 26 0.0 1.6 0.00 0.00 0.00 67 1015.6
20220627190518 26 0.0 1.6 0.00 0.00 0.00 69 1015.5
20220627190019 26 0.0 0.0 0.00 0.00 0.00 69 1015.6
20220627185519 26 0.0 1.6 0.00 0.00 0.00 70 1015.6
20220627185019 26 0.0 0.0 0.00 0.00 0.00 73 1015.6
20220627184519 26 0.0 6.4 0.00 0.00 0.00 75 1015.6
20220627184018 26 158 1.6 6.4 0.00 0.00 0.00 77 1015.5
20220627183519 26 0.0 1.6 0.00 0.00 0.00 82 1015.5
20220627183019 27 0.0 0.0 0.00 0.00 0.00 82 1015.6
20220627182518 27 0.0 1.6 0.00 0.00 0.00 81 1015.6
20220627182019 27 0.0 1.6 0.00 0.00 0.00 81 1015.6
20220627181519 27 0.0 0.0 0.00 0.00 0.00 81 1015.5
20220627181018 27 0.0 0.0 0.00 0.00 0.00 80 1015.6
20220627180521 27 0.0 0.0 0.00 0.00 0.00 80 1015.6
20220627180019 27 0.0 0.0 0.00 0.00 0.00 80 1015.5
20220627175519 27 0.0 0.0 0.00 0.00 0.00 79 1015.5
20220627175019 27 0.0 0.0 0.00 0.00 0.00 79 1015.5
20220627174519 27 0.0 0.0 0.00 0.00 0.00 78 1015.5
20220627174023 27 0.0 0.0 0.00 0.00 0.00 78 1015.5
20220627173510 27 0.0 0.0 0.00 0.00 0.00 78 1015.5
20220627172018 28 0.0 0.0 0.00 0.00 0.00 76 1015.5
20220627171519 28 0.0 0.0 0.00 0.00 0.00 76 1015.5
20220627171018 28 0.0 0.0 0.00 0.00 0.00 75 1015.5
20220627170947 28 0.0 0.0 0.00 0.00 0.00 75 1015.5